When you browse on this site, cookies collect data to enhance your experience and personalize the content and advertising you see.
Visit our Privacy Policy to learn more. By continuing to use the site, you agree to this use of cookies and data.
  • In Lithuania
  • List of Countries
  • For 7 days
  • Water Temperature
  • Weather Map
  • Weather Widgets
  • user-avatar
    Login

    Hourly Weather Nashavar

    Today, 26 May, Tuesday

    Time Temperature Precipitation Wind Pressure Humidity
    00:00 +34°C° 0 mm 1 mps 725 mmHg 20%
    01:00 +33°C° 0 mm 1 mps 724 mmHg 22%
    02:00 +32°C° 0 mm 1 mps 724 mmHg 24%
    03:00 +32°C° 0 mm 1 mps 724 mmHg 25%
    04:00 +31°C° 0 mm 1 mps 724 mmHg 27%
    05:00 +31°C° 0 mm 1 mps 724 mmHg 30%
    06:00 +32°C° 0 mm 2 mps 724 mmHg 27%
    07:00 +35°C° 0 mm 2 mps 724 mmHg 23%
    08:00 +37°C° 0 mm 2 mps 724 mmHg 20%
    09:00 +38°C° 0 mm 3 mps 724 mmHg 17%
    10:00 +40°C° 0 mm 3 mps 724 mmHg 14%
    11:00 +43°C° 0 mm 4 mps 724 mmHg 12%
    12:00 +44°C° 0 mm 4 mps 724 mmHg 11%
    13:00 +44°C° 0 mm 3 mps 724 mmHg 10%
    14:00 +45°C° 0 mm 3 mps 724 mmHg 9%
    15:00 +45°C° 0 mm 3 mps 723 mmHg 8%
    16:00 +46°C° 0 mm 3 mps 723 mmHg 8%
    17:00 +46°C° 0 mm 3 mps 723 mmHg 8%
    18:00 +43°C° 0 mm 2 mps 723 mmHg 10%
    19:00 +41°C° 0 mm 1 mps 723 mmHg 12%
    20:00 +36°C° 0 mm 0 mps 723 mmHg 14%
    21:00 +37°C° 0 mm 1 mps 723 mmHg 13%
    22:00 +36°C° 0 mm 1 mps 723 mmHg 13%
    23:00 +37°C° 0 mm 2 mps 723 mmHg 13%

    Tomorrow, 27 May, Wednesday

    Time Temperature Precipitation Wind Pressure Humidity
    00:00 +36°C° 0 mm 2 mps 723 mmHg 15%
    01:00 +35°C° 0 mm 2 mps 722 mmHg 17%
    02:00 +34°C° 0 mm 2 mps 722 mmHg 19%
    03:00 +32°C° 0 mm 2 mps 722 mmHg 20%
    04:00 +32°C° 0 mm 2 mps 722 mmHg 21%
    05:00 +31°C° 0 mm 2 mps 721 mmHg 22%
    06:00 +34°C° 0 mm 2 mps 722 mmHg 20%
    07:00 +36°C° 0 mm 3 mps 722 mmHg 18%
    08:00 +37°C° 0 mm 3 mps 723 mmHg 16%
    09:00 +40°C° 0 mm 4 mps 723 mmHg 14%
    10:00 +41°C° 0 mm 4 mps 723 mmHg 12%
    11:00 +43°C° 0 mm 5 mps 723 mmHg 10%
    12:00 +45°C° 0 mm 5 mps 722 mmHg 9%
    13:00 +46°C° 0 mm 5 mps 722 mmHg 9%
    14:00 +47°C° 0 mm 5 mps 722 mmHg 8%
    15:00 +47°C° 0 mm 4 mps 721 mmHg 8%
    16:00 +47°C° 0 mm 4 mps 721 mmHg 8%
    17:00 +46°C° 0 mm 3 mps 721 mmHg 8%
    18:00 +44°C° 0 mm 3 mps 721 mmHg 9%
    19:00 +41°C° 0 mm 2 mps 721 mmHg 11%
    20:00 +40°C° 0 mm 2 mps 721 mmHg 13%
    21:00 +38°C° 0 mm 2 mps 721 mmHg 15%
    22:00 +37°C° 0 mm 3 mps 721 mmHg 17%
    23:00 +36°C° 0 mm 3 mps 721 mmHg 19%

    Day after tomorrow, 28 May, Thursday

    Time Temperature Precipitation Wind Pressure Humidity
    00:00 +35°C° 0 mm 3 mps 721 mmHg 21%
    01:00 +35°C° 0 mm 3 mps 721 mmHg 22%
    02:00 +34°C° 0 mm 3 mps 721 mmHg 23%
    03:00 +33°C° 0 mm 3 mps 721 mmHg 24%
    04:00 +33°C° 0 mm 3 mps 720 mmHg 24%
    05:00 +31°C° 0 mm 3 mps 720 mmHg 24%
    06:00 +34°C° 0 mm 3 mps 721 mmHg 22%
    07:00 +36°C° 0 mm 3 mps 721 mmHg 20%
    08:00 +37°C° 0 mm 3 mps 722 mmHg 18%
    09:00 +40°C° 0 mm 4 mps 721 mmHg 16%
    10:00 +41°C° 0 mm 4 mps 721 mmHg 15%
    11:00 +42°C° 0 mm 4 mps 721 mmHg 13%
    12:00 +43°C° 0 mm 4 mps 721 mmHg 12%
    13:00 +44°C° 0 mm 3 mps 721 mmHg 11%
    14:00 +45°C° 0 mm 3 mps 721 mmHg 10%
    15:00 +46°C° 0 mm 3 mps 721 mmHg 10%
    16:00 +46°C° 0 mm 3 mps 720 mmHg 9%
    17:00 +46°C° 0 mm 3 mps 720 mmHg 9%
    18:00 +44°C° 0 mm 3 mps 721 mmHg 12%
    19:00 +42°C° 0 mm 3 mps 721 mmHg 14%
    20:00 +40°C° 0 mm 4 mps 721 mmHg 16%
    21:00 +38°C° 0 mm 4 mps 722 mmHg 18%
    22:00 +37°C° 0 mm 5 mps 722 mmHg 19%
    23:00 +37°C° 0 mm 5 mps 722 mmHg 21%

    29 May, Friday

    Time Temperature Precipitation Wind Pressure Humidity
    00:00 +36°C° 0.1 mm 5 mps 722 mmHg 22%
    01:00 +35°C° 0.1 mm 5 mps 722 mmHg 23%
    02:00 +35°C° 0.1 mm 5 mps 722 mmHg 24%
    03:00 +34°C° 0.2 mm 4 mps 721 mmHg 26%
    04:00 +33°C° 0.2 mm 3 mps 721 mmHg 28%
    05:00 +31°C° 0.2 mm 2 mps 721 mmHg 30%
    06:00 +32°C° 0.1 mm 2 mps 722 mmHg 28%
    07:00 +35°C° 0.1 mm 3 mps 722 mmHg 26%
    08:00 +36°C° 0.1 mm 3 mps 723 mmHg 24%
    09:00 +37°C° 0 mm 2 mps 723 mmHg 22%
    10:00 +38°C° 0 mm 2 mps 723 mmHg 20%
    11:00 +40°C° 0 mm 2 mps 723 mmHg 17%
    12:00 +40°C° 0 mm 3 mps 723 mmHg 17%
    13:00 +41°C° 0 mm 4 mps 723 mmHg 17%
    14:00 +42°C° 0 mm 5 mps 723 mmHg 17%
    15:00 +42°C° 0 mm 4 mps 722 mmHg 17%
    16:00 +42°C° 0 mm 4 mps 722 mmHg 17%
    17:00 +40°C° 0 mm 3 mps 722 mmHg 17%
    18:00 +39°C° 0 mm 3 mps 722 mmHg 19%
    19:00 +38°C° 0 mm 3 mps 723 mmHg 21%
    20:00 +37°C° 0 mm 4 mps 723 mmHg 23%
    21:00 +36°C° 0 mm 3 mps 723 mmHg 25%
    22:00 +35°C° 0 mm 2 mps 723 mmHg 28%
    23:00 +34°C° 0 mm 2 mps 724 mmHg 30%

    30 May, Saturday

    Time Temperature Precipitation Wind Pressure Humidity
    00:00 +32°C° 0 mm 1 mps 724 mmHg 33%
    01:00 +31°C° 0 mm 1 mps 723 mmHg 35%
    02:00 +31°C° 0 mm 1 mps 723 mmHg 38%
    03:00 +30°C° 0 mm 1 mps 723 mmHg 38%
    04:00 +30°C° 0 mm 1 mps 724 mmHg 39%
    05:00 +29°C° 0 mm 1 mps 724 mmHg 40%
    06:00 +30°C° 0 mm 1 mps 724 mmHg 37%
    07:00 +32°C° 0 mm 1 mps 725 mmHg 35%
    08:00 +33°C° 0 mm 1 mps 725 mmHg 32%
    09:00 +35°C° 0 mm 2 mps 726 mmHg 31%
    10:00 +36°C° 0 mm 3 mps 726 mmHg 29%
    11:00 +37°C° 0 mm 3 mps 727 mmHg 28%
    12:00 +37°C° 0 mm 4 mps 726 mmHg 27%
    13:00 +38°C° 0 mm 4 mps 726 mmHg 27%
    14:00 +38°C° 0 mm 4 mps 726 mmHg 26%
    15:00 +38°C° 0.1 mm 4 mps 726 mmHg 28%
    16:00 +37°C° 0.1 mm 4 mps 726 mmHg 29%
    17:00 +37°C° 0.1 mm 4 mps 725 mmHg 30%
    18:00 +34°C° 1.5 mm 4 mps 726 mmHg 41%
    19:00 +30°C° 1.5 mm 4 mps 726 mmHg 52%
    20:00 +27°C° 1.5 mm 4 mps 726 mmHg 63%
    21:00 +27°C° 0.3 mm 3 mps 726 mmHg 62%
    22:00 +27°C° 0.3 mm 2 mps 726 mmHg 62%
    23:00 +27°C° 0.3 mm 1 mps 727 mmHg 61%

    31 May, Sunday

    Time Temperature Precipitation Wind Pressure Humidity
    00:00 +27°C° 0 mm 1 mps 726 mmHg 63%
    01:00 +27°C° 0 mm 1 mps 726 mmHg 64%
    02:00 +27°C° 0 mm 1 mps 725 mmHg 65%
    03:00 +27°C° 0.1 mm 1 mps 725 mmHg 64%
    04:00 +27°C° 0.1 mm 1 mps 726 mmHg 64%
    05:00 +27°C° 0.1 mm 1 mps 726 mmHg 63%
    06:00 +28°C° 0.2 mm 1 mps 726 mmHg 60%
    07:00 +28°C° 0.2 mm 1 mps 726 mmHg 56%
    08:00 +29°C° 0.2 mm 1 mps 727 mmHg 53%
    09:00 +30°C° 0.1 mm 1 mps 727 mmHg 52%
    10:00 +30°C° 0.1 mm 1 mps 727 mmHg 50%
    11:00 +31°C° 0.1 mm 2 mps 728 mmHg 49%
    12:00 +31°C° 0.1 mm 2 mps 727 mmHg 47%
    13:00 +33°C° 0.1 mm 3 mps 727 mmHg 45%
    14:00 +33°C° 0.1 mm 4 mps 727 mmHg 43%
    15:00 +33°C° 0.1 mm 4 mps 727 mmHg 43%
    16:00 +34°C° 0.1 mm 4 mps 726 mmHg 42%
    17:00 +34°C° 0.1 mm 4 mps 726 mmHg 42%
    18:00 +33°C° 0.2 mm 3 mps 726 mmHg 45%
    19:00 +31°C° 0.2 mm 2 mps 726 mmHg 48%
    20:00 +30°C° 0.2 mm 1 mps 726 mmHg 50%
    21:00 +30°C° 0.6 mm 2 mps 726 mmHg 52%
    22:00 +29°C° 0.6 mm 2 mps 726 mmHg 54%
    23:00 +29°C° 0.6 mm 2 mps 726 mmHg 56%
    Show more